N2MLB-WX Weather Reports


time (UTC)temp
C
wind
direction
speed
KPH
gust
KPH
rain 1hr
cm
rain 24hr
cm
rain mn
cm
humidity
%
barometer
mb
20260505100720 18 87 6.4 16.1 0.00 0.00 0.41 65 997.0
20260505100219 17 172 8.0 12.9 0.00 0.00 0.41 66 997.0
20260505095720 17 73 8.0 22.5 0.00 0.00 0.41 67 997.0
20260505095220 17 47 9.7 12.9 0.00 0.00 0.41 67 997.0
20260505094720 17 271 9.7 30.6 0.00 0.00 0.41 66 997.0
20260505094220 17 173 9.7 11.3 0.00 0.00 0.41 68 997.0
20260505093720 17 88 11.3 8.0 0.00 0.00 0.41 68 997.0
20260505093219 17 141 0.0 8.0 0.00 0.00 0.41 68 997.0
20260505092721 17 202 4.8 6.4 0.00 0.00 0.41 69 997.0
20260505092220 17 163 11.3 9.7 0.00 0.00 0.41 68 997.0
20260505091719 17 140 11.3 9.7 0.00 0.00 0.41 68 997.0
20260505091220 17 243 6.4 27.4 0.00 0.00 0.41 69 997.0
20260505090720 17 133 12.9 9.7 0.00 0.00 0.41 71 997.0
20260505090219 16 134 9.7 3.2 0.00 0.00 0.41 72 997.0
20260505085719 16 98 8.0 12.9 0.00 0.00 0.41 72 998.0
20260505085219 16 161 3.2 8.0 0.00 0.00 0.41 74 998.0
20260505084720 16 231 8.0 11.3 0.00 0.00 0.41 73 998.0
20260505084221 16 114 4.8 8.0 0.00 0.00 0.41 73 998.0
20260505083719 16 78 4.8 11.3 0.00 0.00 0.41 73 998.0
20260505083221 16 113 11.3 12.9 0.00 0.00 0.41 74 998.0
20260505082719 16 173 8.0 6.4 0.00 0.00 0.41 74 998.0
20260505082219 16 211 4.8 12.9 0.00 0.00 0.41 74 998.0
20260505081720 15 77 0.0 0.0 0.00 0.00 0.41 77 998.0
20260505081220 16 203 3.2 8.0 0.00 0.00 0.41 73 998.0
20260505080719 17 69 9.7 16.1 0.00 0.00 0.41 71 998.0
20260505080220 16 79 4.8 12.9 0.00 0.00 0.41 73 998.0
20260505075719 16 170 11.3 4.8 0.00 0.00 0.41 80 998.0
20260505075219 16 118 3.2 8.0 0.00 0.00 0.41 78 998.0
20260505074720 15 100 0.0 6.4 0.00 0.00 0.41 84 998.0
20260505074220 13 70 0.0 0.0 0.00 0.00 0.41 91 998.0
20260505073720 12 68 0.0 3.2 0.00 0.00 0.41 94 998.0
20260505073219 12 73 0.0 0.0 0.00 0.00 0.41 96 998.0
20260505072719 12 71 0.0 0.0 0.00 0.00 0.41 96 998.0
20260505072220 12 69 0.0 0.0 0.00 0.00 0.41 96 998.0
20260505071720 12 60 0.0 0.0 0.00 0.00 0.41 96 998.0
20260505071220 12 57 0.0 0.0 0.00 0.00 0.41 95 998.0
20260505070723 12 57 0.0 0.0 0.00 0.00 0.41 95 998.0
20260505070219 12 61 0.0 0.0 0.00 0.00 0.41 94 998.0
20260505065720 12 66 0.0 0.0 0.00 0.00 0.41 94 999.0
20260505065220 12 59 0.0 0.0 0.00 0.00 0.41 94 999.0
20260505064719 12 39 0.0 0.0 0.00 0.00 0.41 93 999.0
20260505064219 13 39 3.2 3.2 0.00 0.00 0.41 93 999.0
20260505063719 13 41 0.0 0.0 0.00 0.00 0.41 91 999.0
20260505063219 13 88 4.8 8.0 0.00 0.00 0.41 89 999.0
20260505062720 13 253 1.6 6.4 0.00 0.00 0.41 90 999.0
20260505062220 13 34 3.2 6.4 0.00 0.00 0.41 91 999.0
20260505061724 13 85 0.0 3.2 0.00 0.00 0.41 92 999.0
20260505061219 12 83 1.6 3.2 0.00 0.00 0.41 92 999.0
20260505060721 12 236 4.8 3.2 0.25 0.00 0.41 93 999.0
20260505060219 12 349 6.4 4.8 0.25 0.00 0.41 92 999.0
20260505055719 12 58 3.2 8.0 0.28 0.00 0.41 92 999.0
20260505055219 12 72 0.0 0.0 0.33 0.00 0.41 93 999.0
20260505054720 12 55 4.8 3.2 0.36 0.00 0.41 93 999.0
20260505054220 13 6 0.0 4.8 0.38 0.00 0.41 93 999.0
20260505053720 13 314 4.8 8.0 0.41 0.00 0.38 92 999.0
20260505053220 14 292 3.2 6.4 0.23 0.00 0.20 90 999.0
20260505052720 15 132 1.6 17.7 0.05 0.00 0.05 82 999.0
20260505052220 15 77 6.4 14.5 0.03 0.00 0.03 78 999.0
20260505051719 15 167 0.0 1.6 0.05 0.00 0.03 80 999.0
20260505051219 15 51 1.6 6.4 0.05 0.00 0.03 78 999.0
20260505050721 15 84 1.6 3.2 0.03 0.00 0.00 78 999.0
20260505050220 16 80 4.8 12.9 0.03 0.00 0.00 73 999.0
20260505041719 16 225 0.0 1.6 0.18 0.00 0.00 78 999.0
20260505041222 16 44 4.8 20.9 0.20 0.00 0.00 77 999.0
20260505040721 16 88 0.0 8.0 0.28 0.00 0.00 77 999.0
20260505040220 15 262 6.4 11.3 0.43 0.00 0.08 79 999.0
20260505035720 15 62 0.0 1.6 0.71 0.00 0.08 81 999.0
20260505035222 16 69 9.7 6.4 2.57 0.00 0.03 72 999.0
20260505034720 17 160 6.4 9.7 0.00 0.00 0.00 64 999.0
20260505034223 17 96 9.7 8.0 0.00 0.00 0.00 64 999.0
20260505033721 17 48 6.4 16.1 0.00 0.00 0.00 64 999.0
20260505033222 17 95 6.4 9.7 0.00 0.00 0.00 64 999.0
20260505032721 17 171 11.3 14.5 0.00 0.00 0.00 64 999.0
20260505032221 17 81 0.0 9.7 0.00 0.00 0.00 66 999.0
20260505031719 17 168 4.8 1.6 0.00 0.00 0.00 67 999.0
20260505031219 17 90 4.8 6.4 0.00 0.00 0.00 66 999.0
20260505030720 17 82 3.2 11.3 0.00 0.00 0.00 65 999.0
20260505030220 17 66 6.4 8.0 0.00 0.00 0.00 65 999.0
20260505025720 17 86 6.4 14.5 0.00 0.00 0.00 66 999.0
20260505025220 17 158 14.5 8.0 0.00 0.00 0.00 62 999.0
20260505024719 18 313 4.8 8.0 0.00 0.00 0.00 55 999.0
20260505024220 18 123 8.0 11.3 0.00 0.00 0.00 55 999.0
20260505023720 18 141 8.0 12.9 0.00 0.00 0.00 54 999.0
20260505023219 18 194 3.2 11.3 0.00 0.00 0.00 54 999.0
20260505022722 18 74 6.4 8.0 0.00 0.00 0.00 54 999.0
20260505022220 18 50 1.6 9.7 0.00 0.00 0.00 54 999.0
20260505021719 19 230 6.4 11.3 0.00 0.00 0.00 52 999.0
20260505021220 19 61 6.4 11.3 0.00 0.00 0.00 50 999.0
20260505020720 19 109 1.6 16.1 0.00 0.00 0.00 50 999.0
20260505020222 19 62 4.8 6.4 0.00 0.00 0.00 46 999.0
20260505015720 20 349 3.2 3.2 0.00 0.00 0.00 45 999.0
20260505015219 18 285 22.5 6.4 0.00 0.00 0.00 48 999.0
20260505014721 18 58 1.6 6.4 0.00 0.00 0.00 45 999.0
20260505014220 17 53 0.0 4.8 0.00 0.00 0.00 47 999.0
20260505013720 17 80 0.0 0.0 0.00 0.00 0.00 47 999.0
20260505013219 16 72 0.0 3.2 0.00 0.00 0.00 47 999.0
20260505012720 17 63 0.0 1.6 0.00 0.00 0.00 46 999.0
20260505012220 17 58 0.0 3.2 0.00 0.00 0.00 45 999.0
20260505011719 17 56 1.6 3.2 0.00 0.00 0.00 44 999.0
20260505011222 17 70 1.6 4.8 0.00 0.00 0.00 44 999.0
20260505010720 17 60 0.0 0.0 0.00 0.00 0.00 46 999.0
20260505010220 16 71 0.0 1.6 0.00 0.00 0.00 50 999.0
20260505005720 16 58 0.0 0.0 0.00 0.00 0.00 49 999.0
20260505005220 17 69 0.0 0.0 0.00 0.00 0.00 45 999.0
20260505004720 17 76 1.6 3.2 0.00 0.00 0.00 44 999.0
20260505004220 17 110 0.0 4.8 0.00 0.00 0.00 44 999.0
20260505003721 17 71 4.8 0.0 0.00 0.00 0.00 44 999.0
20260505003221 17 61 0.0 0.0 0.00 0.00 0.00 46 999.0
20260505002719 17 53 1.6 8.0 0.00 0.00 0.00 42 999.0
20260505002219 17 58 0.0 0.0 0.00 0.00 0.00 45 999.0
20260505001720 18 33 0.0 0.0 0.00 0.00 0.00 41 999.0
20260505001220 18 133 3.2 8.0 0.00 0.00 0.00 40 999.0
20260505000720 18 62 0.0 1.6 0.00 0.00 0.00 45 999.0
20260505000219 18 63 0.0 1.6 0.00 0.00 0.00 43 999.0
20260504235720 18 43 0.0 3.2 0.00 0.00 0.00 44 999.0
20260504235219 18 66 0.0 3.2 0.00 0.00 0.00 40 999.0
20260504234719 18 45 0.0 8.0 0.00 0.00 0.00 39 999.0
20260504234220 18 274 0.0 0.0 0.00 0.00 0.00 45 999.0
20260504233720 18 33 0.0 3.2 0.00 0.00 0.00 41 999.0
20260504233220 18 58 0.0 0.0 0.00 0.00 0.00 41 999.0
20260504232719 19 60 1.6 1.6 0.00 0.00 0.00 41 999.0
20260504232222 19 47 0.0 11.3 0.00 0.00 0.00 45 999.0
20260504231721 20 78 0.0 6.4 0.00 0.00 0.00 42 999.0
20260504231220 20 100 0.0 8.0 0.00 0.00 0.00 39 999.0
20260504230720 20 285 3.2 3.2 0.00 0.00 0.00 39 999.0
20260504230220 20 228 6.4 4.8 0.00 0.00 0.00 38 999.0
20260504225720 20 6 1.6 3.2 0.00 0.00 0.00 44 999.0
20260504225222 20 36 4.8 3.2 0.00 0.00 0.00 42 999.0
20260504224723 20 34 0.0 3.2 0.00 0.00 0.00 43 999.0
20260504224219 20 189 0.0 3.2 0.00 0.00 0.00 41 999.0
20260504223720 20 46 1.6 9.7 0.00 0.00 0.00 40 999.0
20260504223220 21 74 0.0 3.2 0.00 0.00 0.00 40 999.0
20260504222721 21 238 0.0 3.2 0.00 0.00 0.00 41 999.0
20260504222221 21 56 0.0 3.2 0.00 0.00 0.00 39 999.0
20260504221721 20 59 8.0 12.9 0.00 0.00 0.00 40 999.0
20260504221221 20 50 4.8 6.4 0.00 0.00 0.00 42 999.0
20260504220720 20 52 0.0 1.6 0.00 0.00 0.00 43 999.0
20260504220222 21 69 3.2 3.2 0.00 0.00 0.00 43 999.0
20260504215721 21 45 0.0 3.2 0.00 0.00 0.00 39 999.0
20260504215223 21 70 1.6 4.8 0.00 0.00 0.00 40 999.0
20260504214720 21 57 0.0 3.2 0.00 0.00 0.00 38 999.0
20260504214220 21 244 6.4 8.0 0.00 0.00 0.00 39 999.0
20260504213720 22 133 0.0 4.8 0.00 0.00 0.00 35 999.0
20260504213222 21 283 4.8 3.2 0.00 0.00 0.00 40 999.0
20260504212721 21 286 3.2 3.2 0.00 0.00 0.00 39 999.0
20260504212221 21 44 0.0 4.8 0.00 0.00 0.00 40 999.0
20260504211722 22 62 1.6 3.2 0.00 0.00 0.00 37 999.0
20260504211221 22 32 4.8 6.4 0.00 0.00 0.00 40 999.0
20260504210723 21 52 0.0 27.4 0.00 0.00 0.00 38 999.0
20260504210221 23 350 0.0 0.0 0.00 0.00 0.00 36 999.0
20260504205722 23 335 4.8 4.8 0.00 0.00 0.00 35 1000.0
20260504205221 24 340 4.8 3.2 0.00 0.00 0.00 36 1000.0
20260504204722 24 12 0.0 4.8 0.00 0.00 0.00 37 1000.0
20260504204220 24 56 0.0 1.6 0.00 0.00 0.00 35 1000.0
20260504203719 22 33 1.6 6.4 0.00 0.00 0.00 43 1000.0
20260504203222 23 58 0.0 6.4 0.00 0.00 0.00 38 1000.0
20260504202722 23 347 3.2 11.3 0.00 0.00 0.00 39 1000.0
20260504202223 24 35 0.0 4.8 0.00 0.00 0.00 37 1000.0
20260504201720 22 48 0.0 14.5 0.00 0.00 0.00 38 1000.0
20260504201220 22 40 1.6 4.8 0.00 0.00 0.00 38 1000.0
20260504200722 22 310 6.4 8.0 0.00 0.00 0.00 37 1000.0
20260504200220 24 310 3.2 4.8 0.00 0.00 0.00 35 1000.0
20260504195722 26 45 0.0 3.2 0.00 0.00 0.00 39 1001.0
20260504195221 23 31 0.0 0.0 0.00 0.00 0.00 36 1001.0
20260504194724 24 309 0.0 3.2 0.00 0.00 0.00 38 1001.0
20260504194224 23 300 9.7 6.4 0.00 0.00 0.00 36 1001.0
20260504193721 25 307 3.2 0.0 0.00 0.00 0.00 34 1001.0
20260504193223 24 322 8.0 3.2 0.00 0.00 0.00 36 1001.0
20260504192722 22 55 3.2 3.2 0.00 0.00 0.00 45 1001.0
20260504192220 22 274 4.8 9.7 0.00 0.00 0.00 37 1001.0
20260504191721 21 214 6.4 6.4 0.00 0.00 0.00 40 1001.0
20260504191221 22 281 8.0 9.7 0.00 0.00 0.00 38 1001.0
20260504190719 24 48 0.0 4.8 0.00 0.00 0.00 37 1001.0
20260504190221 23 259 6.4 3.2 0.00 0.00 0.00 38 1001.0
20260504185722 23 272 4.8 3.2 0.00 0.00 0.00 39 1001.0
20260504185219 22 284 4.8 4.8 0.00 0.00 0.00 41 1001.0
20260504184721 21 324 4.8 6.4 0.00 0.00 0.00 41 1001.0
20260504184221 22 50 1.6 4.8 0.00 0.00 0.00 41 1001.0
20260504183722 23 53 0.0 3.2 0.00 0.00 0.00 40 1001.0
20260504183221 22 352 1.6 1.6 0.00 0.00 0.00 46 1001.0
20260504182722 22 64 0.0 4.8 0.00 0.00 0.00 40 1001.0
20260504182224 22 307 3.2 4.8 0.00 0.00 0.00 41 1001.0
20260504181724 21 58 0.0 8.0 0.00 0.00 0.00 44 1001.0
20260504181223 19 231 4.8 6.4 0.00 0.00 0.00 44 1001.0
20260504180722 21 293 0.0 4.8 0.00 0.00 0.00 48 1001.0
20260504180221 21 335 0.0 1.6 0.00 0.00 0.00 43 1001.0
20260504175722 20 298 0.0 12.9 0.00 0.00 0.00 47 1002.0
20260504175221 19 276 6.4 14.5 0.00 0.00 0.00 46 1002.0
20260504174721 20 302 9.7 6.4 0.00 0.00 0.00 44 1002.0
20260504174221 19 4 1.6 8.0 0.00 0.00 0.00 46 1002.0
20260504173721 20 8 3.2 4.8 0.00 0.00 0.00 43 1002.0
20260504173221 19 52 3.2 12.9 0.00 0.00 0.00 46 1002.0
20260504172722 20 354 8.0 11.3 0.00 0.00 0.00 46 1002.0
20260504172221 20 241 3.2 4.8 0.00 0.00 0.00 44 1002.0
20260504171722 20 262 4.8 8.0 0.00 0.00 0.00 43 1002.0
20260504171222 20 219 1.6 9.7 0.00 0.00 0.00 45 1002.0
20260504170721 20 254 0.0 6.4 0.00 0.00 0.00 42 1002.0
20260504170222 20 146 0.0 3.2 0.00 0.00 0.00 46 1002.0
20260504160223 20 4 11.3 8.0 0.00 0.00 0.00 40 1002.0
20260504150721 20 303 8.0 8.0 0.00 0.00 0.00 40 1003.0
20260504150222 20 36 0.0 6.4 0.00 0.00 0.00 43 1003.0
20260504141223 18 44 3.2 9.7 0.00 0.00 0.00 47 1003.0
20260504140237 18 128 4.8 12.9 0.00 0.00 0.00 44 1003.0
20260504130722 16 53 4.8 3.2 0.00 0.00 0.00 46 1003.0
20260504130222 16 80 6.4 6.4 0.00 0.00 0.00 47 1003.0
20260504120223 13 98 9.7 17.7 0.00 0.00 0.00 51 1003.0
20260504110721 11 57 3.2 11.3 0.00 0.00 0.00 56 1003.0
20260504110223 11 49 4.8 12.9 0.00 0.00 0.00 56 1003.0